Temp
14 14 15 16 18 18 18 18 19 19 19 19 19 18 18 18 18 18 17 17 17 17 17 17 16 16 16 16 16 16 16 15 15 15 15 15 15 15 15 15 16 15 15
13 14 15 16 17 18 18 18 18 18 18 18 18 18 18 18 18 18 18 18 18 17 17 16 16 16 16 15 15 15 16 16 16 15 15 15 15 15 15 15 15 15 15
13 13 14 16 17 17 17 18 18 18 18 18 18 18 18 18 18 18 18 18 18 17 16 16 16 15 15 15 15 15 16 16 16 16 15 15 15 15 15 15 15 14 14
13 13 13 15 16 16 17 17 18 18 18 18 18 18 18 17 18 18 18 18 18 17 17 16 15 15 15 16 16 16 16 16 15 16 15 15 15 15 15 15 14 14 14
12 12 13 13 14 15 16 17 17 17 18 18 18 18 17 17 17 18 18 17 17 17 16 16 15 15 15 16 16 16 16 16 16 16 15 15 15 14 14 14 14 14 14
12 12 13 13 13 14 16 16 16 16 17 17 17 17 17 17 17 17 18 17 17 17 16 16 15 15 15 16 16 16 16 15 16 16 15 15 14 14 14 14 13 13 13
12 12 13 13 13 13 14 14 15 15 16 17 17 17 17 17 17 17 17 17 17 17 16 15 15 14 15 16 16 16 16 16 16 16 16 14 14 14 14 14 13 13 13
11 11 12 13 13 13 13 14 14 15 15 16 16 16 16 17 17 17 17 17 17 17 15 15 14 14 15 15 16 16 16 16 16 16 15 15 14 14 14 13 13 13 13
11 11 11 12 13 13 13 14 14 14 13 15 16 16 16 16 17 17 17 17 16 17 15 14 15 15 15 15 16 16 16 16 16 16 15 15 14 13 13 13 12 12 12
11 10 11 12 12 12 12 13 13 13 14 14 16 16 16 16 16 16 16 16 16 16 16 15 14 14 15 15 15 15 15 15 15 15 15 14 14 13 13 12 12 12 12
10 10 10 11 11 12 12 12 13 13 14 14 15 15 16 16 16 17 16 16 16 16 16 15 15 14 15 15 15 15 15 15 15 15 14 14 13 13 13 12 12 12 12
10 9 9 10 10 11 11 12 12 13 13 13 14 15 15 16 16 17 17 16 16 16 15 15 14 15 15 15 15 15 15 15 15 15 14 14 13 13 12 12 13 13 13
9 9 9 9 9 9 10 11 12 12 12 12 13 13 14 15 16 16 16 16 15 15 14 14 14 14 15 15 15 15 15 15 14 14 14 13 13 13 12 13 13 13 13
9 9 8 8 9 9 9 9 10 11 12 12 12 13 13 14 15 15 16 16 15 14 14 14 13 14 14 15 14 14 14 14 14 14 14 14 13 13 13 13 13 13 13
9 9 8 8 8 8 9 9 9 10 11 11 11 12 12 14 14 15 15 14 15 14 14 13 13 13 14 14 14 14 14 14 14 14 14 14 14 13 13 13 13 13 13
9 9 8 8 7 7 8 8 8 9 9 9 10 11 12 12 14 15 15 14 14 14 13 14 13 13 14 14 14 14 14 14 14 14 14 14 13 13 13 13 13 12 12
9 9 8 8 7 7 7 7 8 7 8 9 9 10 11 12 13 14 14 14 14 15 14 14 14 14 14 15 15 14 14 14 14 14 14 14 13 13 13 13 13 12 12
9 9 8 8 7 7 6 7 8 8 9 9 10 10 10 12 13 14 14 14 14 14 14 14 14 14 15 15 14 14 14 14 14 14 14 14 14 13 13 13 12 12 12
9 9 8 8 7 6 6 6 7 8 8 9 9 10 10 11 13 13 14 13 14 14 14 14 14 14 14 14 14 14 14 14 14 14 14 14 14 13 13 12 12 12 11
9 9 8 7 6 6 6 6 7 7 8 8 9 9 10 12 12 13 14 13 13 14 13 14 14 14 14 15 14 14 14 14 14 14 14 14 14 13 13 12 11 11 12
9 8 7 7 6 5 5 5 6 5 6 7 8 8 10 12 13 13 13 13 13 13 13 14 14 14 14 14 14 14 14 14 14 14 14 14 14 13 13 12 12 12 11
9 8 7 6 5 5 4 4 4 4 5 6 8 8 10 11 13 14 14 13 14 15 14 13 14 13 14 14 14 14 12 12 13 13 13 13 13 13 12 11 11 10 9
8 7 6 6 5 4 4 4 4 5 5 5 6 8 9 10 11 14 14 14 14 15 14 14 14 14 14 14 14 14 11 11 12 12 12 12 12 12 11 10 10 9 8
8 7 6 5 5 4 4 3 3 3 3 4 4 6 11 9 11 13 13 14 14 15 14 14 14 14 14 14 14 14 14 14 11 10 11 9 10 9 9 9 9 8 6
8 7 6 5 4 4 3 3 3 3 3 5 5 6 9 8 10 10 13 13 14 14 14 14 15 14 14 14 14 14 13 14 14 12 10 9 9 8 7 7 6 5 5
7 6 5 5 4 4 3 3 3 3 3 4 4 5 7 7 8 10 11 12 13 13 13 14 14 14 14 14 14 14 14 13 13 12 10 10 9 5 5 5 4 4 3
Height
829 825 823 821 820 820 820 820 818 819 820 821 821 822 823 824 825 825 827 829 830 831 833 832 834 834 834 835 835 836 836 838 838 839 839 840 840 841 842 842 843 844 845
833 827 823 819 818 818 819 820 818 819 820 821 821 822 823 824 826 826 827 829 831 831 833 834 835 836 836 837 837 838 838 839 840 841 841 841 842 844 845 844 846 847 847
832 827 824 821 819 818 820 821 820 819 820 821 822 823 824 823 824 827 828 830 831 832 833 835 837 838 839 839 840 841 841 841 843 844 845 844 844 846 848 848 849 849 849
833 829 825 822 819 817 818 818 819 820 819 820 821 822 823 823 824 827 829 830 832 833 834 835 838 838 839 840 842 843 844 845 845 846 847 848 848 849 850 850 851 851 851
833 829 826 823 820 817 815 816 817 819 820 819 820 821 823 824 824 826 828 830 831 834 835 836 838 839 840 842 843 844 846 847 847 848 849 850 851 851 852 853 853 854 854
832 829 826 823 820 818 815 814 812 817 820 820 820 821 822 823 824 825 827 829 830 833 835 837 837 839 840 841 845 845 847 848 849 849 850 851 851 853 854 855 855 855 856
831 828 825 823 821 820 816 815 816 814 818 817 819 822 822 823 824 826 826 828 830 832 835 837 838 839 840 842 844 846 847 847 849 850 851 852 853 853 854 855 856 856 856
831 827 824 822 820 819 817 814 815 813 815 818 817 821 822 823 824 825 826 827 829 831 835 837 838 838 840 842 845 847 848 848 849 850 852 853 854 854 856 857 858 857 857
831 827 825 822 819 817 818 815 813 815 814 817 817 820 822 822 823 825 826 827 830 831 833 836 839 839 840 842 844 847 849 849 849 851 853 854 856 856 856 856 858 858 858
829 827 824 822 819 817 817 815 813 813 812 815 813 819 820 821 823 824 826 828 830 831 833 835 838 840 841 842 844 846 849 850 851 853 853 854 856 858 857 857 857 858 857
829 827 824 821 818 816 815 815 812 813 812 812 813 817 817 819 822 824 824 826 829 831 832 834 838 841 842 842 844 846 848 850 851 854 855 855 856 858 858 858 858 857 856
827 825 823 821 818 814 813 812 812 810 811 813 811 816 816 818 819 821 822 824 827 830 831 832 837 841 843 843 845 847 850 850 851 853 855 856 857 858 858 858 858 858 856
825 823 821 818 816 815 813 811 811 809 809 811 812 812 812 814 817 818 820 822 825 827 830 834 836 840 843 845 846 848 850 852 852 853 854 856 857 858 858 857 858 859 857
824 821 820 818 815 813 812 810 809 807 807 808 808 809 811 812 815 818 820 819 822 824 827 830 836 838 843 845 847 849 852 853 853 854 854 857 858 858 858 857 857 858 858
823 821 818 815 813 811 810 808 807 805 804 804 804 806 809 810 812 815 818 820 821 823 827 830 834 836 841 845 847 850 853 853 854 854 854 857 858 858 857 856 857 858 857
822 820 817 814 812 810 807 806 805 802 802 802 801 802 805 806 809 809 814 817 819 822 825 828 831 835 837 841 845 850 852 853 854 854 855 856 857 857 856 856 856 857 856
820 819 817 814 811 809 806 804 802 801 799 798 797 799 800 802 803 805 810 814 817 819 824 829 831 835 837 840 845 849 851 852 855 854 854 855 856 856 855 855 855 855 854
818 817 815 813 810 807 805 801 798 797 796 797 795 795 793 795 798 801 805 808 813 816 821 825 830 834 837 841 843 847 850 851 854 853 854 854 855 854 854 855 854 854 852
816 816 814 812 809 806 804 801 796 794 792 793 791 789 787 787 791 796 800 804 810 814 818 823 828 832 836 840 842 845 848 850 852 853 853 853 853 854 854 853 854 853 852
814 814 813 811 809 805 803 800 795 792 791 789 788 787 783 779 783 790 796 801 806 811 815 821 824 830 833 837 841 844 847 848 850 851 852 852 851 852 852 853 852 852 851
813 813 812 810 806 804 801 798 795 793 790 786 785 784 779 776 779 785 791 797 802 807 809 816 821 827 832 836 840 843 845 846 847 850 850 849 849 850 850 852 851 851 850
811 811 810 809 806 804 802 799 797 793 790 787 784 780 775 774 774 782 786 792 799 803 807 813 818 823 829 833 837 840 843 845 847 849 848 848 847 847 850 851 851 850 850
810 810 810 808 806 804 801 799 796 792 791 788 784 781 775 773 772 778 786 790 797 800 803 810 814 819 824 831 833 835 842 843 845 848 847 847 847 848 849 850 850 849 851
808 809 808 807 806 804 801 799 797 795 793 788 786 781 773 775 771 778 784 790 795 798 802 807 812 816 821 826 831 833 835 835 840 847 847 848 848 849 849 849 849 849 850
807 808 808 806 805 803 801 799 798 797 794 789 786 784 777 780 776 777 784 789 794 798 803 807 810 815 819 824 827 830 833 834 835 837 845 847 849 848 849 848 849 849 850
807 807 807 806 804 802 800 798 798 795 795 793 789 785 781 781 780 781 784 790 794 798 802 804 808 813 818 822 825 828 829 832 832 833 837 841 844 848 848 849 850 849 849
Wind_Speed
29 29 25 17 11 7 7 7 7 8 8 7 7 8 10 10 11 12 11 15 16 14 15 16 17 18 19 21 21 20 19 18 20 20 19 18 17 21 21 19 16 17 15
21 24 23 19 12 8 7 8 7 8 9 9 8 8 11 11 11 11 16 17 16 13 14 16 16 16 17 18 18 16 16 20 19 21 19 22 21 20 19 19 15 17 16
21 20 21 20 14 7 9 10 9 9 8 8 8 8 9 12 12 12 16 17 15 16 15 13 13 13 14 16 17 21 22 21 19 17 16 18 19 18 18 18 16 15 13
19 18 18 18 16 12 9 10 10 9 10 10 9 8 9 11 12 12 16 17 15 13 13 12 12 13 15 15 19 21 19 16 15 17 18 16 15 14 14 15 15 12 13
18 17 19 20 19 15 8 12 10 11 11 10 9 8 9 10 12 15 18 16 17 14 13 14 13 14 16 17 18 18 15 15 17 15 15 13 13 13 13 14 14 13 11
19 18 16 19 20 17 10 9 11 10 8 7 7 8 8 9 11 17 20 17 16 16 14 14 14 15 16 19 19 19 16 16 15 11 14 11 12 12 14 13 12 11 10
17 17 17 17 17 17 10 7 4 4 1 3 3 6 7 9 11 15 19 19 17 14 16 15 15 15 16 19 18 16 10 9 12 11 11 11 13 13 13 12 11 10 9
16 18 16 15 15 15 13 5 3 4 5 3 1 4 6 7 11 15 19 18 19 17 16 16 15 15 15 19 17 14 11 13 15 12 10 10 11 13 14 12 9 8 7
14 15 16 16 13 12 12 2 1 4 12 9 2 2 4 7 10 13 17 18 19 18 19 17 14 13 16 17 17 14 9 12 13 11 10 12 9 12 11 9 6 5 5
13 13 15 15 14 13 10 8 4 2 2 12 3 5 5 5 8 13 16 17 19 20 18 17 16 14 14 16 16 14 11 13 11 11 12 12 8 8 8 8 7 4 4
14 13 16 14 12 11 10 10 5 4 2 5 9 7 8 7 7 10 17 20 22 22 19 16 15 13 13 15 16 17 13 11 8 9 10 12 11 8 7 6 4 3 4
13 14 15 16 14 10 8 9 6 4 3 6 10 14 9 12 8 10 13 21 23 22 21 19 16 13 14 16 18 14 12 11 9 7 8 10 8 7 6 5 4 4 5
11 12 14 15 13 11 9 8 6 5 3 4 6 7 7 10 10 10 13 21 25 24 25 22 18 14 13 16 15 13 11 9 7 6 6 8 7 6 5 4 4 4 5
11 11 15 16 14 12 11 8 9 6 6 7 6 6 10 7 12 10 14 23 28 31 28 24 20 17 13 12 10 12 10 9 7 6 6 5 6 6 4 1 2 5 7
11 12 14 16 16 15 12 10 9 9 8 7 9 8 6 12 15 15 13 21 29 31 28 26 22 21 15 11 10 9 10 9 7 5 5 4 3 3 2 1 3 6 7
11 13 14 15 17 16 14 10 9 11 8 8 10 10 7 12 21 19 15 22 27 30 27 25 25 22 18 15 11 10 10 8 7 5 3 2 2 1 2 2 3 5 7
10 11 13 15 15 16 16 13 11 7 8 9 12 9 14 11 23 26 24 25 29 29 27 27 24 21 19 17 14 12 9 7 7 5 4 2 2 1 2 2 3 5 6
8 9 11 13 14 16 15 16 12 9 6 9 10 11 12 14 25 30 26 26 29 30 30 27 26 22 21 19 16 13 10 8 7 6 5 4 3 2 2 2 3 5 5
8 9 9 12 14 16 16 17 12 6 5 8 9 10 12 19 29 34 27 25 28 30 34 32 28 27 22 20 15 12 10 8 7 5 4 3 2 2 3 4 3 4 5
6 6 8 13 13 14 15 16 9 4 6 6 8 10 11 12 30 36 31 27 27 32 32 32 30 25 22 20 16 14 13 10 9 7 8 5 4 3 3 3 2 1 3
3 4 8 12 13 12 14 16 14 9 6 6 9 10 12 6 26 35 33 31 31 32 35 33 29 25 22 19 15 11 12 10 9 7 9 7 5 3 2 3 4 3 4
0 3 7 11 12 11 13 10 12 13 6 6 9 11 12 4 12 33 31 30 28 30 29 32 30 25 20 21 11 8 1 2 5 6 3 4 5 7 7 6 5 3 2
2 5 8 9 10 10 11 11 11 5 5 8 13 12 12 11 12 25 25 23 24 28 35 31 28 29 22 23 16 6 2 3 6 5 8 9 8 7 8 6 4 2 1
2 6 6 8 8 9 10 10 10 9 7 10 12 12 10 13 18 16 21 23 24 22 28 29 28 28 25 23 17 12 3 5 3 2 5 9 10 8 6 4 4 3 2
2 4 6 7 6 10 9 9 9 9 9 11 11 10 11 11 13 15 18 20 18 22 22 26 27 26 24 24 21 17 12 5 5 3 3 5 6 4 4 3 3 3 3
1 4 6 7 7 8 9 9 8 10 11 11 11 12 12 10 13 10 10 9 11 17 19 21 27 27 26 21 23 17 17 7 7 4 2 4 8 4 4 3 2 3 4
Wind_Direction
349 360 353 341 334 266 245 215 190 184 178 176 162 159 160 159 148 136 121 119 117 123 126 121 106 104 108 107 104 103 100 101 99 104 101 94 103 99 96 90 78 84 93
349 0 358 353 331 260 234 228 199 190 187 192 181 174 167 163 158 145 127 122 124 126 114 115 112 108 108 107 106 103 105 109 106 118 101 87 91 93 89 83 81 90 92
355 357 4 10 342 278 256 241 211 196 186 187 178 174 170 165 163 154 140 134 133 119 115 115 113 117 113 108 104 105 107 108 98 103 103 90 85 85 85 82 92 90 97
349 360 7 5 13 344 267 255 238 216 196 187 186 176 172 169 171 161 149 142 139 127 129 126 123 125 125 118 115 111 104 102 109 98 94 85 81 84 88 91 93 83 78
353 355 3 12 13 18 359 245 241 231 215 195 190 184 175 175 176 171 156 152 147 134 131 129 126 128 134 128 120 121 117 114 109 110 96 97 92 96 93 89 93 92 88
356 357 353 7 17 23 25 358 250 244 226 218 202 200 180 173 178 172 162 160 155 146 137 132 130 129 134 132 127 119 115 115 116 112 110 103 108 99 99 94 92 93 83
355 360 357 352 4 15 36 52 67 55 173 207 217 232 199 183 182 180 170 166 159 151 146 141 137 136 141 140 141 131 112 125 137 120 105 116 123 110 111 103 98 94 90
352 358 0 355 353 360 12 87 47 132 183 325 160 242 222 197 191 186 179 174 168 164 152 146 143 145 147 150 148 134 109 108 123 128 120 104 111 115 109 100 98 95 97
353 354 1 1 3 0 356 1 84 162 183 228 186 265 237 216 197 192 187 182 175 170 161 151 150 152 153 155 155 145 111 111 125 134 133 137 128 100 105 101 101 96 81
353 352 351 359 4 13 9 352 328 302 155 195 167 251 242 220 220 204 195 194 180 176 167 156 156 154 155 158 159 151 115 109 107 124 120 126 127 110 109 111 108 99 80
352 353 343 349 360 5 12 356 352 335 230 207 203 254 251 262 245 224 209 196 186 182 165 155 158 158 151 146 146 138 123 127 121 120 131 125 128 129 120 121 105 82 62
348 349 339 344 344 354 356 352 344 324 315 293 228 245 229 230 264 257 226 203 195 187 169 161 164 161 153 139 141 135 124 128 134 127 145 165 138 133 133 126 97 79 72
341 344 343 344 341 335 340 327 330 320 292 309 300 275 257 214 246 295 233 200 193 183 166 163 161 158 151 145 138 136 131 145 147 133 150 167 146 144 141 104 96 57 33
343 344 343 346 345 335 326 327 313 307 303 273 286 304 267 231 195 320 240 197 188 176 173 171 167 155 150 145 141 143 145 141 145 133 119 161 163 156 158 180 304 327 306
337 342 349 345 346 345 333 323 315 302 285 290 290 264 282 234 206 220 244 202 190 182 174 172 170 161 168 162 162 163 160 152 149 144 132 136 152 162 161 201 344 347 349
330 339 344 347 342 341 341 329 317 311 294 296 296 277 258 235 220 208 230 204 196 185 186 184 175 165 165 170 173 180 173 168 169 171 157 164 188 231 262 311 321 334 348
321 331 339 344 344 341 336 328 315 316 299 296 312 290 258 239 223 207 213 209 202 198 190 184 177 177 173 177 181 184 187 187 204 192 202 227 226 277 335 334 320 318 335
314 324 334 337 340 339 337 326 312 301 293 291 303 295 274 259 225 219 215 210 204 197 191 183 181 179 175 181 180 187 198 206 224 223 225 235 256 268 292 305 327 337 344
315 318 330 336 336 339 337 327 318 300 280 299 315 318 303 263 216 214 205 203 207 200 187 186 182 185 181 183 181 184 194 210 226 229 243 252 290 294 286 304 308 334 359
323 317 323 330 333 338 336 334 328 304 303 314 332 334 330 249 212 206 206 202 202 192 186 185 185 187 191 184 182 197 201 217 226 246 258 255 273 280 321 323 231 296 317
294 320 331 326 329 333 343 350 346 332 333 349 352 343 11 200 200 207 204 202 199 187 185 189 184 181 183 181 180 170 192 215 225 262 244 234 206 190 203 216 221 256 292
201 342 334 325 330 338 343 352 329 316 337 348 359 6 30 17 190 195 197 190 201 195 184 188 182 180 186 187 174 147 182 116 184 168 173 166 175 179 187 197 207 225 282
28 348 336 331 335 339 344 347 351 319 352 9 18 17 38 43 97 177 180 183 198 203 178 183 185 182 175 182 186 153 122 187 138 116 107 123 134 147 150 154 165 139 132
4 343 343 338 349 337 350 5 13 0 346 356 4 17 44 37 85 134 172 180 184 183 180 184 183 185 183 182 187 207 203 147 155 137 102 115 139 131 133 147 146 124 105
319 1 344 343 340 345 354 11 18 3 3 360 7 32 74 55 56 86 145 165 175 185 184 186 188 194 197 196 191 201 214 206 164 143 164 166 139 129 141 133 134 125 113
156 20 355 359 343 347 354 13 17 12 15 13 17 33 52 60 61 67 96 139 166 181 190 200 203 199 199 204 199 203 197 178 191 165 135 155 167 146 142 129 126 111 95